When you browse on this site, cookies collect data to enhance your experience and personalize the content and advertising you see.
Visit our Privacy Policy to learn more. By continuing to use the site, you agree to this use of cookies and data.
  • In Czech Republic
  • List of Countries
  • For 7 days
  • Water Temperature
  • Satellite Maps
  • Weather Map
  • Weather Widgets
  • user-avatar
    Login

    Hourly Weather Oktyabrsk

    Today, 16 July, Tuesday

    Time Temperature Precipitation Wind Pressure Humidity
    00:00 +13°C° 0 mm 1 mps 744 mmHg 89%
    01:00 +13°C° 0 mm 1 mps 744 mmHg 90%
    02:00 +13°C° 0 mm 1 mps 744 mmHg 89%
    03:00 +13°C° 0.3 mm 1 mps 744 mmHg 90%
    04:00 +13°C° 0.3 mm 1 mps 744 mmHg 90%
    05:00 +13°C° 0.3 mm 1 mps 743 mmHg 90%
    06:00 +14°C° 0.1 mm 1 mps 743 mmHg 87%
    07:00 +16°C° 0.1 mm 1 mps 743 mmHg 84%
    08:00 +18°C° 0.1 mm 1 mps 743 mmHg 81%
    09:00 +19°C° 0.6 mm 1 mps 743 mmHg 76%
    10:00 +20°C° 0.6 mm 1 mps 743 mmHg 70%
    11:00 +22°C° 0.6 mm 1 mps 743 mmHg 64%
    12:00 +22°C° 0.3 mm 1 mps 742 mmHg 62%
    13:00 +23°C° 0.3 mm 1 mps 742 mmHg 60%
    14:00 +23°C° 0.3 mm 1 mps 742 mmHg 58%
    15:00 +23°C° 0.4 mm 1 mps 742 mmHg 60%
    16:00 +23°C° 0.4 mm 1 mps 741 mmHg 62%
    17:00 +23°C° 0.4 mm 1 mps 741 mmHg 64%
    18:00 +21°C° 0.3 mm 1 mps 741 mmHg 69%
    19:00 +19°C° 0.3 mm 1 mps 741 mmHg 74%
    20:00 +18°C° 0.3 mm 1 mps 741 mmHg 79%
    21:00 +16°C° 0.3 mm 1 mps 741 mmHg 83%
    22:00 +15°C° 0.3 mm 2 mps 741 mmHg 87%
    23:00 +13°C° 0.3 mm 3 mps 740 mmHg 91%

    Tomorrow, 17 July, Wednesday

    Time Temperature Precipitation Wind Pressure Humidity
    00:00 +14°C° 0 mm 2 mps 740 mmHg 90%
    01:00 +14°C° 0 mm 2 mps 740 mmHg 90%
    02:00 +14°C° 0 mm 2 mps 740 mmHg 90%
    03:00 +14°C° 0.4 mm 2 mps 740 mmHg 91%
    04:00 +14°C° 0.4 mm 2 mps 740 mmHg 93%
    05:00 +14°C° 0.4 mm 2 mps 739 mmHg 94%
    06:00 +15°C° 0.4 mm 2 mps 739 mmHg 92%
    07:00 +16°C° 0.4 mm 2 mps 739 mmHg 90%
    08:00 +16°C° 0.4 mm 2 mps 740 mmHg 88%
    09:00 +17°C° 0.8 mm 3 mps 739 mmHg 86%
    10:00 +17°C° 0.8 mm 3 mps 739 mmHg 84%
    11:00 +18°C° 0.8 mm 4 mps 739 mmHg 81%
    12:00 +18°C° 0.4 mm 4 mps 739 mmHg 79%
    13:00 +19°C° 0.4 mm 4 mps 739 mmHg 77%
    14:00 +19°C° 0.4 mm 4 mps 739 mmHg 75%
    15:00 +19°C° 0.2 mm 4 mps 739 mmHg 74%
    16:00 +19°C° 0.2 mm 3 mps 739 mmHg 73%
    17:00 +19°C° 0.2 mm 3 mps 739 mmHg 72%
    18:00 +18°C° 0.1 mm 3 mps 739 mmHg 77%
    19:00 +16°C° 0.1 mm 3 mps 739 mmHg 83%
    20:00 +15°C° 0.1 mm 2 mps 738 mmHg 88%
    21:00 +14°C° 0 mm 2 mps 738 mmHg 90%
    22:00 +13°C° 0 mm 2 mps 738 mmHg 92%
    23:00 +12°C° 0 mm 2 mps 738 mmHg 94%

    Day after tomorrow, 18 July, Thursday

    Time Temperature Precipitation Wind Pressure Humidity
    00:00 +12°C° 0 mm 2 mps 738 mmHg 94%
    01:00 +12°C° 0 mm 2 mps 738 mmHg 94%
    02:00 +12°C° 0 mm 2 mps 738 mmHg 95%
    03:00 +12°C° 0 mm 2 mps 738 mmHg 95%
    04:00 +10°C° 0 mm 2 mps 738 mmHg 96%
    05:00 +10°C° 0 mm 2 mps 738 mmHg 96%
    06:00 +12°C° 0 mm 3 mps 738 mmHg 94%
    07:00 +13°C° 0 mm 3 mps 738 mmHg 91%
    08:00 +14°C° 0 mm 3 mps 738 mmHg 89%
    09:00 +14°C° 0.5 mm 4 mps 738 mmHg 89%
    10:00 +15°C° 0.5 mm 4 mps 739 mmHg 89%
    11:00 +15°C° 0.5 mm 5 mps 739 mmHg 89%
    12:00 +15°C° 0.6 mm 5 mps 739 mmHg 91%
    13:00 +14°C° 0.6 mm 5 mps 739 mmHg 92%
    14:00 +14°C° 0.6 mm 6 mps 739 mmHg 94%
    15:00 +14°C° 0.7 mm 6 mps 739 mmHg 94%
    16:00 +14°C° 0.7 mm 6 mps 739 mmHg 94%
    17:00 +14°C° 0.7 mm 6 mps 739 mmHg 94%
    18:00 +14°C° 0.2 mm 6 mps 739 mmHg 94%
    19:00 +14°C° 0.2 mm 5 mps 739 mmHg 94%
    20:00 +14°C° 0.2 mm 5 mps 739 mmHg 94%
    21:00 +14°C° 0.1 mm 5 mps 739 mmHg 95%
    22:00 +14°C° 0.1 mm 5 mps 740 mmHg 95%
    23:00 +14°C° 0.1 mm 5 mps 740 mmHg 96%

    19 July, Friday

    Time Temperature Precipitation Wind Pressure Humidity
    00:00 +14°C° 0.1 mm 5 mps 740 mmHg 96%
    01:00 +14°C° 0.1 mm 5 mps 740 mmHg 96%
    02:00 +14°C° 0.1 mm 5 mps 740 mmHg 96%
    03:00 +14°C° 0.1 mm 5 mps 741 mmHg 95%
    04:00 +14°C° 0.1 mm 5 mps 741 mmHg 95%
    05:00 +14°C° 0.1 mm 5 mps 741 mmHg 95%
    06:00 +14°C° 0.1 mm 5 mps 742 mmHg 94%
    07:00 +14°C° 0.1 mm 5 mps 742 mmHg 94%
    08:00 +14°C° 0.1 mm 5 mps 742 mmHg 93%
    09:00 +15°C° 0 mm 5 mps 742 mmHg 89%
    10:00 +16°C° 0 mm 5 mps 743 mmHg 85%
    11:00 +17°C° 0 mm 5 mps 743 mmHg 81%
    12:00 +19°C° 0.6 mm 6 mps 743 mmHg 79%
    13:00 +20°C° 0.6 mm 6 mps 743 mmHg 78%
    14:00 +21°C° 0.6 mm 6 mps 744 mmHg 76%
    15:00 +21°C° 0.4 mm 6 mps 744 mmHg 76%
    16:00 +20°C° 0.4 mm 6 mps 744 mmHg 77%
    17:00 +20°C° 0.4 mm 5 mps 744 mmHg 78%
    18:00 +19°C° 0.1 mm 4 mps 744 mmHg 81%
    19:00 +18°C° 0.1 mm 4 mps 744 mmHg 84%
    20:00 +17°C° 0.1 mm 3 mps 745 mmHg 87%
    21:00 +16°C° 0 mm 3 mps 745 mmHg 89%
    22:00 +14°C° 0 mm 3 mps 745 mmHg 90%
    23:00 +13°C° 0 mm 3 mps 745 mmHg 92%

    20 July, Saturday

    Time Temperature Precipitation Wind Pressure Humidity
    00:00 +13°C° 0 mm 3 mps 746 mmHg 93%
    01:00 +13°C° 0 mm 3 mps 746 mmHg 93%
    02:00 +12°C° 0 mm 3 mps 746 mmHg 93%
    03:00 +12°C° 0 mm 3 mps 746 mmHg 93%
    04:00 +12°C° 0 mm 3 mps 746 mmHg 93%
    05:00 +12°C° 0 mm 3 mps 746 mmHg 93%
    06:00 +14°C° 0 mm 3 mps 747 mmHg 90%
    07:00 +16°C° 0 mm 3 mps 747 mmHg 86%
    08:00 +18°C° 0 mm 3 mps 747 mmHg 82%
    09:00 +19°C° 0 mm 4 mps 747 mmHg 77%
    10:00 +21°C° 0 mm 4 mps 748 mmHg 71%
    11:00 +22°C° 0 mm 4 mps 748 mmHg 65%
    12:00 +22°C° 0 mm 4 mps 748 mmHg 63%
    13:00 +23°C° 0 mm 4 mps 748 mmHg 60%
    14:00 +25°C° 0 mm 4 mps 748 mmHg 58%
    15:00 +23°C° 0 mm 4 mps 748 mmHg 61%
    16:00 +24°C° 0 mm 3 mps 748 mmHg 64%
    17:00 +24°C° 0 mm 3 mps 748 mmHg 67%
    18:00 +21°C° 0 mm 3 mps 748 mmHg 70%
    19:00 +20°C° 0 mm 2 mps 748 mmHg 74%
    20:00 +18°C° 0 mm 2 mps 748 mmHg 78%
    21:00 +17°C° 0 mm 2 mps 748 mmHg 80%
    22:00 +16°C° 0 mm 1 mps 748 mmHg 81%
    23:00 +15°C° 0 mm 1 mps 748 mmHg 83%

    21 July, Sunday

    Time Temperature Precipitation Wind Pressure Humidity
    00:00 +15°C° 0 mm 1 mps 748 mmHg 84%
    01:00 +15°C° 0 mm 1 mps 748 mmHg 85%
    02:00 +14°C° 0 mm 1 mps 748 mmHg 87%
    03:00 +14°C° 0 mm 1 mps 748 mmHg 88%
    04:00 +14°C° 0 mm 1 mps 748 mmHg 90%
    05:00 +14°C° 0 mm 1 mps 748 mmHg 92%
    06:00 +16°C° 0 mm 1 mps 748 mmHg 87%
    07:00 +19°C° 0 mm 1 mps 748 mmHg 82%
    08:00 +19°C° 0 mm 2 mps 748 mmHg 78%
    09:00 +20°C° 0 mm 2 mps 749 mmHg 73%
    10:00 +23°C° 0 mm 2 mps 749 mmHg 68%
    11:00 +24°C° 0 mm 2 mps 749 mmHg 63%
    12:00 +24°C° 0 mm 2 mps 749 mmHg 61%
    13:00 +25°C° 0 mm 2 mps 748 mmHg 60%
    14:00 +25°C° 0 mm 2 mps 748 mmHg 58%
    15:00 +25°C° 0 mm 2 mps 748 mmHg 61%
    16:00 +25°C° 0 mm 2 mps 748 mmHg 64%
    17:00 +25°C° 0 mm 2 mps 748 mmHg 66%
    18:00 +23°C° 0.1 mm 2 mps 748 mmHg 71%
    19:00 +22°C° 0.1 mm 1 mps 748 mmHg 76%
    20:00 +20°C° 0.1 mm 1 mps 748 mmHg 82%
    21:00 +19°C° 0 mm 1 mps 748 mmHg 84%
    22:00 +18°C° 0 mm 1 mps 748 mmHg 86%
    23:00 +15°C° 0 mm 0 mps 748 mmHg 88%
    Show more